Weather History for Morganton, NC

Change the Weather History Date:

Wednesday, November 21, 2012

  Actual Average (KHKY) Record (KHKY)
Temperature  
Mean Temperature 47 °F -  
Max Temperature 64 °F 55 °F 73 °F (1979)
Min Temperature 30 °F 36 °F 19 °F (1951)
Degree Days  
Heating Degree Days 18    
Moisture  
Dew Point 33 °F    
Average Humidity 75    
Maximum Humidity 100    
Minimum Humidity 30    
Precipitation  
Precipitation 0.00 in - - ()
Sea Level Pressure  
Sea Level Pressure 30.18 in    
Wind  
Wind Speed 1 mph (ENE)    
Max Wind Speed 7 mph    
Max Gust Speed -    
Visibility 7 miles    
Events Fog    
Averages and records for this station are not official NWS values.
T = Trace of Precipitation, MM = Missing Value Source: NWS Daily Summary

Daily Weather History Graph

Daily Weather History Graph

Search for Another Location

Airport:

Trip Planner

Search our weather history database for the weather conditions in past years. The results will help you decide how hot, cold, wet, or windy it might be!

Date:

Astronomy

Nov. 21, 2012 Rise Set
Actual Time 7:09 AM EST 5:15 PM EST
Civil Twilight 6:41 AM EST 5:43 PM EST
Nautical Twilight 6:10 AM EST 6:14 PM EST
Astronomical Twilight 5:39 AM EST 6:44 PM EST
Moon 1:20 PM EST (11/21) 12:38 AM EST (11/21)
Length of Visible Light 11h 01m
Length of Day
10h 06m
First Quarter, 61% of the Moon is Illuminated
Nov 21
First Quarter
Nov 28
Full
Dec 6
Last Quarter
Dec 13
New
Dec 20
First Quarter

Hourly Weather History & Observations

Time (EST) Temp. Windchill Dew Point Humidity Pressure Visibility Wind Dir Wind Speed Gust Speed Precip Events Conditions
12:15 AM 33.8 °F - 33.8 °F 100% 30.15 in 1.2 mi Calm Calm - N/A   Mist
12:35 AM 32.0 °F - 32.0 °F 100% 30.15 in 1.2 mi Calm Calm - N/A   Mist
12:55 AM 32.0 °F - 32.0 °F 100% 30.14 in 0.2 mi Calm Calm - N/A Fog Light Freezing Fog
1:15 AM 32.0 °F - 32.0 °F 100% 30.14 in 1.0 mi Calm Calm - N/A   Mist
1:35 AM 32.0 °F - 32.0 °F 100% 30.14 in 1.2 mi Calm Calm - N/A   Mist
1:55 AM 32.0 °F - 32.0 °F 100% 30.14 in 1.2 mi Calm Calm - N/A   Mist
2:15 AM 32.0 °F - 32.0 °F 100% 30.14 in 0.8 mi Calm Calm - N/A   Mist
2:35 AM 32.0 °F - 32.0 °F 100% 30.14 in 0.5 mi Calm Calm - N/A Fog Fog
2:55 AM 32.0 °F - 32.0 °F 100% 30.14 in 2.5 mi Calm Calm - N/A   Clear
3:15 AM 30.2 °F - 30.2 °F 100% 30.14 in 3.0 mi Calm Calm - N/A   Clear
3:35 AM 30.2 °F - 30.2 °F 100% 30.14 in 4.0 mi Calm Calm - N/A   Clear
3:55 AM 30.2 °F - 30.2 °F 100% 30.14 in 5.0 mi Calm Calm - N/A   Clear
4:15 AM 32.0 °F - 32.0 °F 100% 30.15 in 7.0 mi Calm Calm - N/A   Clear
4:35 AM 30.2 °F - 30.2 °F 100% 30.15 in 7.0 mi Calm Calm - N/A   Clear
4:55 AM 30.2 °F - 30.2 °F 100% 30.16 in 7.0 mi Calm Calm - N/A   Clear
5:15 AM 32.0 °F - 32.0 °F 100% 30.16 in 7.0 mi Calm Calm - N/A   Clear
5:35 AM 32.0 °F 28.7 °F 32.0 °F 100% 30.17 in 5.0 mi NW 3.5 mph - N/A   Clear
5:55 AM 32.0 °F - 32.0 °F 100% 30.17 in 3.0 mi Calm Calm - N/A   Clear
6:15 AM 30.2 °F - 30.2 °F 100% 30.18 in 4.0 mi Calm Calm - N/A   Clear
6:35 AM 30.2 °F - 30.2 °F 100% 30.18 in 5.0 mi Calm Calm - N/A   Clear
6:55 AM 32.0 °F - 32.0 °F 100% 30.19 in 4.0 mi Calm Calm - N/A   Clear
7:15 AM 32.0 °F - 32.0 °F 100% 30.20 in 3.0 mi Calm Calm - N/A   Clear
7:35 AM 32.0 °F 28.7 °F 32.0 °F 100% 30.20 in 3.0 mi NNW 3.5 mph - N/A   Clear
7:55 AM 33.8 °F - 32.0 °F 93% 30.21 in 1.8 mi Calm Calm - N/A   Mist
8:15 AM 33.8 °F - 33.8 °F 100% 30.22 in 1.5 mi Calm Calm - N/A   Mist
8:35 AM 37.4 °F - 37.4 °F 100% 30.22 in 3.0 mi Calm Calm - N/A   Clear
8:55 AM 37.4 °F - 35.6 °F 93% 30.22 in 5.0 mi Calm Calm - N/A   Clear
9:15 AM 41.0 °F - 37.4 °F 87% 30.22 in 10.0 mi Calm Calm - N/A   Clear
9:35 AM 44.6 °F - 37.4 °F 76% 30.22 in 10.0 mi Calm Calm - N/A   Clear
9:55 AM 46.4 °F - 37.4 °F 71% 30.22 in 10.0 mi Calm Calm - N/A   Clear
10:15 AM 48.2 °F - 37.4 °F 66% 30.22 in 10.0 mi Calm Calm - N/A   Clear
10:35 AM 50.0 °F - 37.4 °F 62% 30.22 in 10.0 mi Calm Calm - N/A   Clear
10:55 AM 51.8 °F - 37.4 °F 58% 30.22 in 10.0 mi Calm Calm - N/A   Clear
11:15 AM 53.6 °F - 39.2 °F 58% 30.21 in 10.0 mi Calm Calm - N/A   Clear
11:35 AM 55.4 °F - 39.2 °F 54% 30.21 in 10.0 mi Calm Calm - N/A   Clear
11:55 AM 59.0 °F - 37.4 °F 45% 30.20 in 10.0 mi Calm Calm - N/A   Clear
12:15 PM 60.8 °F - 35.6 °F 39% 30.19 in 10.0 mi Calm Calm - N/A   Clear
12:35 PM 60.8 °F - 32.0 °F 34% 30.18 in 10.0 mi NE 4.6 mph - N/A   Clear
12:55 PM 62.6 °F - 32.0 °F 32% 30.17 in 10.0 mi Calm Calm - N/A   Clear
1:15 PM 62.6 °F - 32.0 °F 32% 30.17 in 10.0 mi Calm Calm - N/A   Clear
1:35 PM 62.6 °F - 32.0 °F 32% 30.16 in 10.0 mi South 6.9 mph - N/A   Clear
1:55 PM 62.6 °F - 32.0 °F 32% 30.16 in 10.0 mi ESE 4.6 mph - N/A   Clear
2:15 PM 64.4 °F - 32.0 °F 30% 30.16 in 10.0 mi SE 3.5 mph - N/A   Clear
2:35 PM 64.4 °F - 32.0 °F 30% 30.15 in 10.0 mi SE 4.6 mph - N/A   Clear
3:15 PM 64.4 °F - 32.0 °F 30% 30.15 in 10.0 mi SE 3.5 mph - N/A   Clear
3:35 PM 62.6 °F - 32.0 °F 32% 30.15 in 10.0 mi South 4.6 mph - N/A   Clear
3:55 PM 62.6 °F - 32.0 °F 32% 30.15 in 10.0 mi ESE 4.6 mph - N/A   Clear
4:15 PM 62.6 °F - 30.2 °F 30% 30.16 in 10.0 mi ESE 3.5 mph - N/A   Clear
4:35 PM 62.6 °F - 32.0 °F 32% 30.16 in 10.0 mi East 3.5 mph - N/A   Clear
4:55 PM 60.8 °F - 32.0 °F 34% 30.17 in 10.0 mi Calm Calm - N/A   Clear
5:15 PM 53.6 °F - 37.4 °F 54% 30.17 in 10.0 mi Calm Calm - N/A   Clear
5:35 PM 46.4 °F 45.2 °F 37.4 °F 71% 30.18 in 10.0 mi East 3.5 mph - N/A   Clear
5:55 PM 46.4 °F 45.2 °F 35.6 °F 66% 30.18 in 10.0 mi East 3.5 mph - N/A   Clear
6:15 PM 44.6 °F - 35.6 °F 71% 30.19 in 10.0 mi Calm Calm - N/A   Clear
6:35 PM 46.4 °F - 35.6 °F 66% 30.19 in 10.0 mi Calm Calm - N/A   Clear
6:55 PM 42.8 °F - 35.6 °F 76% 30.20 in 10.0 mi Calm Calm - N/A   Clear
7:15 PM 42.8 °F - 33.8 °F 70% 30.20 in 10.0 mi Calm Calm - N/A   Clear
7:35 PM 42.8 °F - 33.8 °F 70% 30.21 in 10.0 mi Calm Calm - N/A   Clear
7:55 PM 41.0 °F - 33.8 °F 76% 30.21 in 10.0 mi Calm Calm - N/A   Clear
8:15 PM 41.0 °F - 33.8 °F 76% 30.21 in 10.0 mi Calm Calm - N/A   Clear
8:35 PM 37.4 °F 34.9 °F 33.8 °F 87% 30.22 in 10.0 mi NNE 3.5 mph - N/A   Clear
8:55 PM 39.2 °F - 33.8 °F 81% 30.22 in 10.0 mi Calm Calm - N/A   Clear
9:15 PM 42.8 °F - 33.8 °F 70% 30.22 in 10.0 mi Calm Calm - N/A   Clear
9:35 PM 39.2 °F 37.0 °F 33.8 °F 81% 30.22 in 10.0 mi North 3.5 mph - N/A   Clear
9:55 PM 41.0 °F - 33.8 °F 76% 30.22 in 10.0 mi Calm Calm - N/A   Clear
10:15 PM 39.2 °F - 33.8 °F 81% 30.22 in 10.0 mi Calm Calm - N/A   Clear
10:35 PM 33.8 °F 30.8 °F 32.0 °F 93% 30.23 in 10.0 mi North 3.5 mph - N/A   Clear
10:55 PM 41.0 °F 38.0 °F 33.8 °F 76% 30.23 in 10.0 mi North 4.6 mph - N/A   Clear
11:15 PM 41.0 °F - 33.8 °F 76% 30.23 in 10.0 mi Calm Calm - N/A   Clear
11:35 PM 35.6 °F 32.8 °F 32.0 °F 87% 30.23 in 10.0 mi North 3.5 mph - N/A   Clear
11:55 PM 33.8 °F - 32.0 °F 93% 30.23 in 10.0 mi Calm Calm - N/A   Clear